Location: Cedarville Mobile Home Park
(38.5815°N, 75.0860°W)
Time: 23:50:22
(UTC+00:00)

Tiangong - Visible Passes

Search period start: 13 October 2024 00:00
Search period end: 23 October 2024 00:00
Orbit: 371 x 377 km, 41.5° (Epoch: 13 October)

Date Brightness Start Highest point End Pass type
(mag) Time Alt. Az. Time Alt. Az. Time Alt. Az.
16 Oct 0.0 10:19:31 10° SSW 10:22:04 23° SSE 10:24:36 10° E visible
17 Oct 0.7 09:18:30 12° SSE 09:19:01 12° SE 09:20:23 10° ESE visible
18 Oct -0.9 09:50:40 24° SSW 09:51:57 35° SSE 09:54:50 10° E visible
19 Oct 1.2 08:50:38 12° ESE 08:50:38 12° ESE 08:51:02 10° E visible
19 Oct -2.3 10:22:37 16° WSW 10:25:01 87° NNW 10:28:08 10° ENE visible
20 Oct -0.8 09:22:25 39° ESE 09:22:25 39° ESE 09:24:38 10° ENE visible
21 Oct -2.2 09:54:03 52° WNW 09:54:36 66° NNW 09:57:41 10° ENE visible
22 Oct 1.2 08:53:35 14° ENE 08:53:35 14° ENE 08:54:04 10° ENE visible
22 Oct -1.6 10:25:33 17° WNW 10:27:40 46° N 10:30:41 10° ENE visible
